Back to catalog

CZ-6A DEB

AlivePO
NORAD 60874·DEBRIS·🇨🇳 China

Launched Aug 6, 2024 from Taiyuan Satellite Launch Center

Loading…

Next Passes (next 24 hours)

TLE

FreshSource: Space-Track

Epoch: Sep 14, 2026, 10:30 UTC

1 60874U 24140KD  26257.43750489  .00000895  00000-0  20158-3 0  9999
2 60874  88.8778 248.5589 0099353 326.1061  33.3822 14.52545282110317

Track CZ-6A DEB in real time with AllMySat

Download on the App Store